Home > Weather > Nienburg (Weser) > Past weeks

Flag for Germany Past Weather in Nienburg (Weser), Lower Saxony, Germany — Yesterday and Last 2 Weeks

Now
64 °F

Mild.


Feels Like: 64 °F
Forecast: 59 / 73 °F
Wind: 6 mph from East

Location: Wunstorf Airport

Current Time: May 28, 2016 at 10:02:53 AM

Latest Report: May 28, 2016 at 9:20 AM


Visibility: N/A

Pressure: 29.98 "Hg

Humidity: 73%

Dew Point: 55 °F

Location of Nienburg (Weser)Location

Past Weather in Nienburg (Weser) — Graph

°F

Nienburg (Weser) Temperature Yesterday

Maximum temperature yesterday: 72 °F (at 4:20 PM)
Minimum temperature yesterday: 50 °F (at 5:20 AM)
Average temperature yesterday: 61 °F

High & Low Weather Summary for the Past Weeks

 TemperatureHumidityPressure
High82 °F (May 22, 2:20 PM)100% (May 23, 1:20 AM)30.07 "Hg (May 23, 1:20 AM)
Low41 °F (May 15, 3:20 AM)25% (May 13, 1:20 PM)29.59 "Hg (May 13, 2:20 PM)
Average57 °F69%29.91 "Hg
* Reported May 13 8:20 AM — May 28 8:20 AM, Nienburg (Weser), Weather by CustomWeather, © 2016

Note: Actual official high and low records may vary slightly from our data, if they occured in-between our weather recording intervals... More about our weather records

Advertising

Nienburg (Weser) Weather History for the Previous 24 Hours

Scroll right to see more
 ConditionsComfort  
Time TempWeatherWind HumidityBarometerVisibility
8:20 AM
Sat, May 28
59 °FCool.5 mph88%29.98 "Hg4 mi
7:20 AM57 °FCool.3 mph88%29.98 "Hg4 mi
6:20 AM57 °FCool.3 mph88%29.98 "Hg4 mi
5:20 AM57 °FCool.3 mph88%29.98 "Hg4 mi
4:20 AM57 °FCool.5 mph88%29.98 "Hg4 mi
3:20 AM57 °FCool.6 mph88%30.01 "Hg6 mi
2:20 AM57 °FCool.7 mph88%29.98 "Hg6 mi
1:20 AM59 °FCool.7 mph82%30.01 "Hg6 mi
12:20 AM61 °FCool.6 mph77%30.01 "Hg5 mi
11:20 PM
Fri, May 27
63 °FMild.5 mph73%30.01 "Hg6 mi
10:20 PM63 °FMild.6 mph68%30.01 "HgN/A
9:20 PM66 °FMild.2 mph60%30.01 "HgN/A
8:20 PM66 °FMild.3 mph60%29.98 "HgN/A
7:20 PM68 °FMild.5 mph56%29.98 "HgN/A
6:20 PM70 °FMild.9 mph53%29.98 "HgN/A
5:20 PM70 °FMild.8 mph53%30.01 "HgN/A
4:20 PM72 °FMild.7 mph50%30.01 "Hg6 mi
3:20 PM70 °FMild.6 mph53%30.01 "HgN/A
2:20 PM70 °FMild.7 mph57%30.01 "Hg6 mi
1:20 PM66 °FScattered clouds.7 mph64%30.01 "HgN/A
12:20 PM64 °FBroken clouds.6 mph73%30.04 "Hg5 mi
11:50 AM63 °FBroken clouds.6 mph77%30.04 "Hg5 mi
11:20 AM61 °FPartly sunny.7 mph83%30.04 "Hg5 mi
10:20 AM59 °FFog.6 mph88%30.04 "Hg2 mi
Weather by CustomWeather, © 2016

See weather overviewHow to use our weather pages